Latest Coastal Weather Observations for Eucla

IDS60701

Issued at 8:11 am CDT Monday 8 February 2016 (issued every 10 minutes, with the page automatically refreshed every 10 minutes)

About coastal observations | Map of coastal stations | Coastal observations for SA | Marine services | Other Formats
Station Details ID: 011003 Name: EUCLA Lat: -31.68 Lon: 128.90 Height: 93.1 m
Data from the previous 72 hours. | See also: Recent months at Eucla
Date/Time
CDT
Temp

°C
Wind Pressure Rain
since 9am
mm
Weather Cloud Vis
km
Sea
Height
m
Swell
Dir
 
Speed
knots
Gust
knots
hPa Trend Height
m
Period
s
Dir
08/08:00am 17.9 ESE 8 13 1022.9 - 0.0 - - - - - - -
08/07:30am 18.1 ESE 8 14 1022.7 - 0.0 - - - - - - -
08/07:00am 17.9 SE 8 12 1022.6 - 0.0 - - - - - - -
08/06:30am 18.1 ESE 8 14 1022.4 - 0.0 - - - - - - -
08/06:00am 18.0 SE 7 15 1022.2 - 0.0 - - - - - - -
08/05:30am 17.9 ESE 9 13 1022.2 - 0.0 - - - - - - -
08/05:00am 17.9 ESE 7 13 1022.1 - 0.0 - - - - - - -
08/04:30am 18.1 ESE 8 14 1022.2 - 0.0 - - - - - - -
08/04:00am 18.2 ESE 9 14 1022.4 - 0.0 - - - - - - -
08/03:30am 18.3 ESE 9 15 1022.5 - 0.0 - - - - - - -
08/03:00am 18.3 ESE 10 16 1022.7 - 0.0 - - - - - - -
08/02:30am 18.4 ESE 9 15 1022.7 - 0.0 - - - - - - -
08/02:00am 18.5 ESE 9 15 1023.0 - 0.0 - - - - - - -
08/01:30am 18.4 SE 10 17 1023.1 - 0.0 - - - - - - -
08/01:00am 18.6 SE 9 18 1023.3 - 0.0 - - - - - - -
08/12:30am 18.6 ESE 10 17 1023.4 - 0.0 - - - - - - -
08/12:00am 18.7 SE 11 17 1023.5 - 0.0 - - - - - - -
 
Date/Time
CDT
Temp

°C
Wind Pressure Rain
since 9am
mm
Weather Cloud Vis
km
Sea
Height
m
Swell
Dir
 
Speed
knots
Gust
knots
hPa Trend Height
m
Period
s
Dir
07/11:30pm 18.9 SE 8 14 1023.4 - 0.0 - - - - - - -
07/11:00pm 19.0 ESE 11 17 1023.1 - 0.0 - - - - - - -
07/10:30pm 19.0 SE 12 20 1022.8 - 0.0 - - - - - - -
07/10:00pm 19.2 SE 11 18 1022.4 - 0.0 - - - - - - -
07/09:30pm 19.3 SE 10 18 1021.8 - 0.0 - - - - - - -
07/09:00pm 19.4 SE 11 16 1021.5 - 0.0 - - - - - - -
07/08:30pm 19.7 SE 9 15 1021.4 - 0.0 - - - - - - -
07/08:00pm 20.2 SE 11 16 1021.0 - 0.0 - - - - - - -
07/07:30pm 20.3 SE 11 17 1020.6 - 0.0 - - - - - - -
07/07:00pm 21.3 SE 11 17 1020.5 - 0.0 - - - - - - -
07/06:30pm 21.8 SE 12 17 1020.4 - 0.0 - - - - - - -
07/06:00pm 21.9 SE 12 19 1020.2 - 0.0 - - - - - - -
07/05:30pm 21.6 SE 11 17 1020.2 - 0.0 Fine Partly cloudy 40 - - - -
07/05:00pm 22.3 SE 11 18 1020.1 - 0.0 - - - - - - -
07/04:30pm 22.7 SE 11 16 1020.2 - 0.0 - - - - - - -
07/04:00pm 23.8 SE 10 18 1020.1 - 0.0 - - - - - - -
07/03:30pm 22.9 ESE 11 17 1020.2 - 0.0 - - - - - - -
07/03:00pm 22.5 SE 10 16 1020.3 - 0.0 - - - - - - -
07/02:30pm 22.3 SE 10 15 1020.5 - 0.0 - - - - - - -
07/02:00pm 22.6 ESE 10 15 1020.6 - 0.0 - - - - - - -
07/01:30pm 22.8 ESE 10 16 1020.8 - 0.0 - - - - - - -
07/01:00pm 22.4 SE 10 17 1021.0 - 0.0 - - - - - - -
07/12:30pm 22.9 SE 10 14 1021.2 - 0.0 - - - - - - -
07/12:00pm 22.1 SE 10 16 1021.3 - 0.0 - - - - - - -
07/11:30am 21.8 ESE 8 13 1021.2 - 0.0 Fine Partly cloudy 40 - - - -
07/11:00am 21.3 SE 11 17 1021.2 - 0.0 - - - - - - -
07/10:30am 20.4 SE 9 16 1021.1 - 0.0 - - - - - - -
07/10:00am 20.1 SE 8 13 1021.0 - 0.0 - - - - - - -
07/09:30am 19.6 SE 8 10 1020.8 - 0.0 - - - - - - -
07/09:00am 19.2 SE 8 13 1020.6 - 0.0 - - - - - - -
07/08:30am 18.6 SE 7 11 1020.3 - 0.0 - - - - - - -
07/08:00am 18.0 ESE 7 12 1019.9 - 0.0 - - - - - - -
07/07:30am 17.8 SE 7 11 1019.5 - 0.0 - - - - - - -
07/07:00am 17.3 ESE 7 10 1019.1 - 0.0 - - - - - - -
07/06:30am 17.6 SE 6 9 1018.9 - 0.0 - - - - - - -
07/06:00am 17.7 SE 7 10 1018.7 - 0.0 - - - - - - -
07/05:30am 17.8 SE 6 8 1018.7 - 0.0 - - - - - - -
07/05:00am 18.0 SE 7 11 1018.5 - 0.0 - - - - - - -
07/04:30am 18.1 SE 7 10 1018.5 - 0.0 - - - - - - -
07/04:00am 18.1 SE 6 8 1018.4 - 0.0 - - - - - - -
07/03:30am 18.1 ESE 8 13 1018.4 - 0.0 - - - - - - -
07/03:00am 18.1 ESE 7 12 1018.4 - 0.0 - - - - - - -
07/02:30am 18.3 ESE 7 10 1018.5 - 0.0 - - - - - - -
07/02:00am 18.3 ESE 6 9 1018.7 - 0.0 - - - - - - -
07/01:30am 18.4 ESE 7 10 1018.8 - 0.0 - - - - - - -
07/01:00am 18.3 ESE 6 9 1019.0 - 0.0 - - - - - - -
07/12:30am 18.2 ESE 7 10 1019.0 - 0.0 - - - - - - -
07/12:00am 18.0 ESE 7 12 1018.8 - 0.0 - - - - - - -
 
Date/Time
CDT
Temp

°C
Wind Pressure Rain
since 9am
mm
Weather Cloud Vis
km
Sea
Height
m
Swell
Dir
 
Speed
knots
Gust
knots
hPa Trend Height
m
Period
s
Dir
06/11:30pm 18.3 ESE 7 11 1019.0 - 0.0 - - - - - - -
06/11:00pm 18.6 ESE 7 12 1019.1 - 0.0 - - - - - - -
06/10:30pm 18.4 SE 9 14 1019.0 - 0.0 - - - - - - -
06/10:00pm 18.9 SE 9 15 1018.7 - 0.0 - - - - - - -
06/09:30pm 18.8 SE 8 13 1018.4 - 0.0 - - - - - - -
06/09:00pm 19.0 SE 9 14 1018.1 - 0.0 - - - - - - -
06/08:30pm 19.3 SE 10 16 1017.8 - 0.0 - - - - - - -
06/08:00pm 19.8 SE 10 16 1017.4 - 0.0 - - - - - - -
06/07:30pm 20.1 SSE 11 16 1017.1 - 0.0 - - - - - - -
06/07:00pm 20.5 SSE 10 16 1017.0 - 0.0 - - - - - - -
06/06:30pm 21.0 SE 11 16 1016.8 - 0.0 - - - - - - -
06/06:00pm 22.9 SE 11 17 1016.8 - 0.0 - - - - - - -
06/05:30pm 22.6 SE 10 15 1016.7 - 0.0 Fine Mostly clear 40 - - - -
06/05:00pm 22.4 SSE 10 18 1016.7 - 0.0 - - - - - - -
06/04:30pm 23.0 ESE 10 17 1016.8 - 0.0 - - - - - - -
06/04:00pm 23.2 SE 10 18 1016.9 - 0.0 - - - - - - -
06/03:30pm 22.4 SE 9 16 1017.2 - 0.0 - - - - - - -
06/03:00pm 22.9 SE 10 17 1017.3 - 0.0 - - - - - - -
06/02:30pm 22.6 SE 10 15 1017.6 - 0.0 - - - - - - -
06/02:00pm 22.8 SE 10 14 1017.9 - 0.0 - - - - - - -
06/01:30pm 22.8 SE 9 14 1017.9 - 0.0 - - - - - - -
06/01:00pm 22.0 ESE 8 14 1018.0 - 0.0 - - - - - - -
06/12:30pm 22.1 SE 8 14 1018.3 - 0.0 - - - - - - -
06/12:00pm 22.2 SE 8 15 1018.4 - 0.0 - - - - - - -
06/11:30am 21.1 SE 8 13 1018.6 - 0.0 Fine Mostly clear 40 - - - -
06/11:00am 21.5 ESE 7 10 1018.4 - 0.0 - - - - - - -
06/10:30am 21.3 SE 7 10 1018.7 - 0.0 - - - - - - -
06/10:00am 19.8 SSE 8 12 1018.5 - 0.0 - - - - - - -
06/09:30am 19.5 ESE 5 9 1018.2 - 0.0 - - - - - - -
06/09:00am 18.0 NE 4 6 1017.7 - 0.0 - - - - - - -
06/08:30am 16.0 NNE 5 6 1017.5 - 0.0 - - - - - - -
06/08:00am 14.9 NE 5 5 1017.3 - 0.0 - - - - - - -
06/07:30am 14.2 ENE 5 5 1017.0 - 0.0 - - - - - - -
06/07:00am 15.0 E 5 6 1016.5 - 0.0 - - - - - - -
06/06:30am 15.4 E 5 7 1016.4 - 0.0 - - - - - - -
06/06:00am 15.9 ESE 5 7 1016.3 - 0.0 - - - - - - -
06/05:30am 16.4 E 6 7 1016.0 - 0.0 - - - - - - -
06/05:00am 17.0 ESE 5 7 1016.0 - 0.0 - - - - - - -
06/04:30am 17.7 ESE 5 8 1016.1 - 0.0 - - - - - - -
06/04:00am 17.9 ESE 8 13 1016.2 - 0.0 - - - - - - -
06/03:30am 18.0 SE 7 11 1016.5 - 0.0 - - - - - - -
06/03:00am 18.1 ESE 7 11 1016.8 - 0.0 - - - - - - -
06/02:30am 18.1 SE 8 13 1017.0 - 0.0 - - - - - - -
06/02:00am 18.4 ESE 7 12 1017.5 - 0.0 - - - - - - -
06/01:30am 18.5 ESE 7 9 1017.8 - 0.0 - - - - - - -
06/01:00am 18.7 ESE 8 13 1018.1 - 0.0 - - - - - - -
06/12:30am 19.0 ESE 8 14 1018.1 - 0.0 - - - - - - -
06/12:00am 19.0 ESE 7 11 1018.3 - 0.0 - - - - - - -
 
Date/Time
CDT
Temp

°C
Wind Pressure Rain
since 9am
mm
Weather Cloud Vis
km
Sea
Height
m
Swell
Dir
 
Speed
knots
Gust
knots
hPa Trend Height
m
Period
s
Dir
05/11:30pm 18.9 ESE 9 15 1018.4 - 0.0 - - - - - - -
05/11:00pm 19.3 ESE 9 14 1018.3 - 0.0 - - - - - - -
05/10:30pm 19.2 SE 9 15 1018.3 - 0.0 - - - - - - -
05/10:00pm 19.0 SE 8 14 1018.1 - 0.0 - - - - - - -
05/09:30pm 18.9 SE 9 14 1018.2 - 0.0 - - - - - - -
05/09:00pm 18.9 SE 9 15 1018.0 - 0.0 - - - - - - -
05/08:30pm 19.2 SE 10 16 1017.8 - 0.0 - - - - - - -
05/08:00pm 19.7 SE 11 18 1017.6 - 0.0 - - - - - - -
05/07:30pm 20.9 SE 11 16 1017.3 - 0.0 - - - - - - -
05/07:00pm 20.9 SE 12 19 1016.9 - 0.0 - - - - - - -
05/06:30pm 21.0 SE 12 17 1016.9 - 0.0 - - - - - - -
05/06:00pm 21.6 SE 12 18 1016.9 - 0.0 - - - - - - -
05/05:30pm 21.4 ESE 11 16 1016.9 - 0.0 Fine Mostly clear 40 - - - -
05/05:00pm 22.3 ESE 12 19 1017.0 - 0.0 - - - - - - -
05/04:30pm 22.6 ESE 12 18 1017.3 - 0.0 - - - - - - -
05/04:00pm 23.6 ESE 12 18 1017.5 - 0.0 - - - - - - -
05/03:30pm 22.8 ESE 12 17 1017.8 - 0.0 - - - - - - -
05/03:00pm 22.5 ESE 12 18 1018.0 - 0.0 - - - - - - -
05/02:30pm 22.6 SE 12 17 1018.3 - 0.0 - - - - - - -
05/02:00pm 22.3 SE 11 17 1018.7 - 0.0 - - - - - - -
05/01:30pm 22.7 ESE 11 16 1019.3 - 0.0 - - - - - - -
05/01:00pm 23.3 SE 12 18 1019.7 - 0.0 - - - - - - -
05/12:30pm 22.2 ESE 12 17 1019.9 - 0.0 - - - - - - -
05/12:00pm 22.1 SE 12 17 1020.1 - 0.0 - - - - - - -
05/11:30am 21.0 ESE 12 18 1020.4 - 0.0 Fine Mostly cloudy 40 - - - -
05/11:00am 21.7 SE 11 18 1020.5 - 0.0 - - - - - - -

Other Formats:

Comma delimited format used in spreadsheet applications
http://www.bom.gov.au/fwo/IDS60701/IDS60701.94647.axf

JavaScript Object Notation format (JSON) in row-major order
http://www.bom.gov.au/fwo/IDS60701/IDS60701.94647.json